Location: Unspecified
(47.6579°N, 23.5637°E)
Time: 02:35:27
(UTC+02:00)

Envisat - Pass Details

Date: 07 December 2021
Orbit: 764 x 766 km, 98.2° (Epoch: 17 January)

Event Time Altitude Azimuth Distance (km) Brightness Sun altitude
Rises 16:56:51 0° 181° (S) 3,219 6.7 -4.1°
Reaches altitude 10° 16:59:13 10° 187° (S) 2,298 6.0 -4.4°
Maximum altitude 17:04:06 47° 261° (W) 1,009 4.2 -5.1°
Drops below altitude 10° 17:09:01 10° 336° (NNW) 2,314 5.5 -5.9°
Sets 17:11:26 0° 342° (NNW) 3,245 6.2 -6.2°
